2023-001Q (55023 NORAD) Tracking and Keplerian Element Data

This shows tracking and keplerian element data for the satellite.

Feedback or suggestion? Click here.




ElementValue
Catalog55023
Name2023-001Q
Epoch Orbit169
Epoch Day13.78712661
Epoch Year2023
RAAN75.7346
Inclination97.5045
Eccentricity0.0011511
Argument of Perigee178.672
Mean Anonmoly181.4544
Mean Motion15.1231919
Decay Rate0.00015143
L11 55023U 23001Q 23013.78712661 .00015143 00000+0 87541-3 0 9999
L22 55023 97.5045 75.7346 0011511 178.6720 181.4544 15.12319190 1694



Live tracking and technical data element details for 2023-001Q (NORAD 55023). 2023-001Q can be tracked NOW for your location showing map with azimuth and elevation plus other details from your city location.







IsCatalogInMostPopularTable: catalog: 55023, numindb: 3
Update: records affected: 1



GetName: 55023 2023-001Q

Hit Count: updated at: Tue, 07 Feb 2023 14:56:24 GMT